Weather History for KVWU - May, 2013

Change the Weather History Date:

Wednesday, May 29, 2013

  Actual Average (KBDE) Record (KBDE)
Temperature  
Mean Temperature 65 °F -  
Max Temperature 75 °F 73 °F 93 °F (1986)
Min Temperature 55 °F 47 °F 30 °F (1952)
Growing Degree Days 15 (Base 50)    
Moisture  
Dew Point 57 °F    
Average Humidity 78    
Maximum Humidity 94    
Minimum Humidity 50    
Precipitation  
Precipitation 0.01 in - - ()
Sea Level Pressure  
Sea Level Pressure 29.70 in    
Wind  
Wind Speed 5 mph (South)    
Max Wind Speed 10 mph    
Max Gust Speed -    
Visibility 10 miles    
Events Rain    
Averages and records for this station are not official NWS values.
T = Trace of Precipitation, MM = Missing Value Source: NWS Daily Summary

Daily Weather History Graph

Daily Weather History Graph

Search for Another Location

Airport or City:

Trip Planner

Search our weather history database for the weather conditions in past years. The results will help you decide how hot, cold, wet, or windy it might be!

Date:

Astronomy

May. 29, 2013 Rise Set
Actual Time 5:24 AM CDT 9:07 PM CDT
Civil Twilight 4:44 AM CDT 9:47 PM CDT
Nautical Twilight 3:50 AM CDT 10:41 PM CDT
Astronomical Twilight 2:34 AM CDT 11:59 PM CDT
Moon 12:19 AM CDT (5/29) 10:37 AM CDT (5/29)
Length of Visible Light 17h 02m
Length of Day
15h 43m
Waning Gibbous, 73% of the Moon is Illuminated
May 29
Waning Gibbous
May 31
Last Quarter
Jun 8
New
Jun 16
First Quarter
Jun 23
Full

Hourly Weather History & Observations

Time (CDT) Temp. Dew Point Humidity Pressure Visibility Wind Dir Wind Speed Gust Speed Precip Events Conditions
12:12 AM 57.2 °F 53.6 °F 88% 29.68 in 10.0 mi SSE 6.9 mph - N/A   Clear
12:33 AM 57.2 °F 53.6 °F 88% 29.68 in 10.0 mi SSE 4.6 mph - N/A   Scattered Clouds
12:52 AM 57.2 °F 53.6 °F 88% 29.68 in 10.0 mi SSE 5.8 mph - N/A   Clear
1:12 AM 57.2 °F 53.6 °F 88% 29.68 in 10.0 mi SE 5.8 mph - N/A   Scattered Clouds
1:33 AM 57.2 °F 53.6 °F 88% 29.68 in 10.0 mi SSE 6.9 mph - N/A   Mostly Cloudy
1:52 AM 57.2 °F 55.4 °F 94% 29.69 in 10.0 mi SSE 6.9 mph - N/A   Mostly Cloudy
2:12 AM 59.0 °F 55.4 °F 88% 29.70 in 10.0 mi South 5.8 mph - N/A   Mostly Cloudy
2:33 AM 59.0 °F 55.4 °F 88% 29.70 in 10.0 mi South 8.1 mph - N/A   Mostly Cloudy
2:52 AM 59.0 °F 55.4 °F 88% 29.69 in 10.0 mi South 8.1 mph - N/A   Mostly Cloudy
3:12 AM 59.0 °F 55.4 °F 88% 29.70 in 10.0 mi South 10.4 mph - N/A   Overcast
3:33 AM 57.2 °F 55.4 °F 94% 29.71 in 10.0 mi South 8.1 mph - N/A   Overcast
3:52 AM 57.2 °F 53.6 °F 88% 29.70 in 10.0 mi South 8.1 mph - N/A   Mostly Cloudy
4:12 AM 57.2 °F 53.6 °F 88% 29.70 in 10.0 mi South 5.8 mph - N/A   Scattered Clouds
4:33 AM 57.2 °F 53.6 °F 88% 29.70 in 10.0 mi South 4.6 mph - N/A   Clear
4:52 AM 55.4 °F 53.6 °F 94% 29.68 in 10.0 mi Calm Calm - N/A   Clear
5:12 AM 55.4 °F 53.6 °F 94% 29.69 in 7.0 mi South 4.6 mph - N/A   Clear
5:33 AM 55.4 °F 53.6 °F 94% 29.70 in 5.0 mi South 3.5 mph - N/A   Clear
5:52 AM 55.4 °F 53.6 °F 94% 29.71 in 5.0 mi South 3.5 mph - N/A   Clear
6:12 AM 55.4 °F 53.6 °F 94% 29.71 in 7.0 mi South 3.5 mph - N/A   Clear
6:32 AM 57.2 °F 55.4 °F 94% 29.71 in 7.0 mi South 5.8 mph - N/A   Clear
6:52 AM 57.2 °F 55.4 °F 94% 29.70 in 7.0 mi Calm Calm - N/A   Clear
7:12 AM 59.0 °F 57.2 °F 94% 29.71 in 10.0 mi SSE 4.6 mph - N/A   Clear
7:32 AM 60.8 °F 57.2 °F 88% 29.71 in 10.0 mi South 6.9 mph - N/A   Clear
7:52 AM 60.8 °F 55.4 °F 82% 29.71 in 10.0 mi SSW 3.5 mph - N/A   Scattered Clouds
8:12 AM 62.6 °F 57.2 °F 82% 29.70 in 10.0 mi Calm Calm - N/A   Scattered Clouds
8:32 AM 64.4 °F 57.2 °F 77% 29.70 in 10.0 mi South 5.8 mph - N/A   Clear
8:52 AM 66.2 °F 57.2 °F 73% 29.70 in 10.0 mi South 5.8 mph - N/A   Clear
9:12 AM 68.0 °F 57.2 °F 68% 29.69 in 10.0 mi SE 5.8 mph - N/A   Clear
9:32 AM 69.8 °F 57.2 °F 64% 29.69 in 10.0 mi South 3.5 mph - N/A   Clear
9:52 AM 71.6 °F 57.2 °F 60% 29.69 in 10.0 mi South 5.8 mph - N/A   Clear
10:12 AM 71.6 °F 57.2 °F 60% 29.69 in 10.0 mi Calm Calm - N/A   Clear
10:32 AM 71.6 °F 59.0 °F 64% 29.70 in 10.0 mi West 4.6 mph - N/A   Clear
10:52 AM 71.6 °F 59.0 °F 64% 29.70 in 10.0 mi West 4.6 mph - N/A   Clear
11:12 AM 71.6 °F 59.0 °F 64% 29.70 in 10.0 mi West 5.8 mph - N/A   Clear
11:32 AM 71.6 °F 60.8 °F 69% 29.70 in 10.0 mi West 6.9 mph - N/A   Clear
11:52 AM 71.6 °F 60.8 °F 69% 29.70 in 10.0 mi West 4.6 mph - N/A   Clear
12:12 PM 69.8 °F 59.0 °F 68% 29.71 in 10.0 mi West 6.9 mph - N/A   Clear
12:32 PM 71.6 °F 60.8 °F 69% 29.71 in 10.0 mi West 4.6 mph - N/A   Clear
12:53 PM 71.6 °F 59.0 °F 64% 29.71 in 10.0 mi WNW 3.5 mph - N/A   Clear
1:12 PM 71.6 °F 59.0 °F 64% 29.71 in 10.0 mi WNW 3.5 mph - N/A   Clear
1:32 PM 73.4 °F 60.8 °F 65% 29.70 in 10.0 mi West 3.5 mph - N/A   Scattered Clouds
1:52 PM 71.6 °F 59.0 °F 64% 29.70 in 10.0 mi West 3.5 mph - N/A   Scattered Clouds
2:12 PM 73.4 °F 59.0 °F 61% 29.70 in 10.0 mi West 4.6 mph - N/A   Clear
2:32 PM 73.4 °F 60.8 °F 65% 29.70 in 10.0 mi West 4.6 mph - N/A   Scattered Clouds
2:52 PM 71.6 °F 60.8 °F 69% 29.71 in 10.0 mi WSW 3.5 mph - N/A   Mostly Cloudy
3:12 PM 71.6 °F 60.8 °F 69% 29.71 in 10.0 mi SW 4.6 mph - N/A   Overcast
3:32 PM 75.2 °F 55.4 °F 50% 29.70 in 10.0 mi South 8.1 mph - N/A   Scattered Clouds
3:52 PM 75.2 °F 55.4 °F 50% 29.69 in 10.0 mi SSE 4.6 mph - N/A   Mostly Cloudy
4:12 PM 73.4 °F 53.6 °F 50% 29.70 in 10.0 mi SSE 4.6 mph - N/A   Overcast
4:32 PM 73.4 °F 53.6 °F 50% 29.71 in 10.0 mi South 6.9 mph - N/A   Mostly Cloudy
4:52 PM 71.6 °F 57.2 °F 60% 29.71 in 10.0 mi SSE 6.9 mph - N/A Rain Light Rain
5:12 PM 68.0 °F 60.8 °F 78% 29.72 in 10.0 mi South 4.6 mph - N/A Rain Light Rain
5:32 PM 66.2 °F 60.8 °F 83% 29.71 in 10.0 mi Calm Calm - N/A   Light Drizzle
5:52 PM 68.0 °F 62.6 °F 83% 29.70 in 10.0 mi SE 3.5 mph - N/A Rain Light Rain
6:12 PM 69.8 °F 62.6 °F 78% 29.70 in 10.0 mi Calm Calm - 0.01 in Rain Light Rain
6:32 PM 68.0 °F 60.8 °F 78% 29.69 in 10.0 mi ESE 3.5 mph - 0.01 in   Clear
6:52 PM 69.8 °F 62.6 °F 78% 29.69 in 10.0 mi Calm Calm - 0.01 in Rain Light Rain
7:12 PM 69.8 °F 62.6 °F 78% 29.69 in 10.0 mi Calm Calm - N/A   Scattered Clouds
7:32 PM 68.0 °F 60.8 °F 78% 29.68 in 10.0 mi Calm Calm - N/A Rain Light Rain
7:52 PM 66.2 °F 60.8 °F 83% 29.68 in 10.0 mi Calm Calm - N/A Rain Light Rain
8:12 PM 66.2 °F 60.8 °F 83% 29.68 in 10.0 mi ESE 5.8 mph - N/A   Scattered Clouds
8:33 PM 66.2 °F 60.8 °F 83% 29.69 in 10.0 mi Calm Calm - N/A   Scattered Clouds
8:52 PM 64.4 °F 60.8 °F 88% 29.71 in 10.0 mi South 4.6 mph - N/A   Mostly Cloudy
9:12 PM 64.4 °F 57.2 °F 77% 29.71 in 10.0 mi SSE 5.8 mph - N/A Rain Light Rain
9:33 PM 64.4 °F 57.2 °F 77% 29.71 in 10.0 mi SE 4.6 mph - N/A Rain Light Rain
9:52 PM 62.6 °F 57.2 °F 82% 29.70 in 10.0 mi ESE 6.9 mph - N/A Rain Light Rain
10:12 PM 62.6 °F 57.2 °F 82% 29.68 in 10.0 mi East 8.1 mph - N/A   Light Drizzle
10:32 PM 62.6 °F 57.2 °F 82% 29.69 in 10.0 mi ESE 4.6 mph - N/A Rain Light Rain
10:52 PM 60.8 °F 57.2 °F 88% 29.69 in 10.0 mi ESE 4.6 mph - N/A Rain Light Rain
11:12 PM 60.8 °F 57.2 °F 88% 29.68 in 10.0 mi East 8.1 mph - N/A Rain Light Rain
11:33 PM 60.8 °F 57.2 °F 88% 29.68 in 10.0 mi ESE 8.1 mph - N/A   Mostly Cloudy
11:52 PM 60.8 °F 57.2 °F 88% 29.68 in 10.0 mi East 6.9 mph - N/A   Mostly Cloudy